Regional Weather Roundup
Issued by NWS

Home | Current Version | Previous Version | Text Only | Print | Product List | Glossary On
Versions: 1 2 3 4 5 6 7 8 9 10 11 12 13 14 15 16 17 18 19 20 21 22 23 24 25 26 27 28 29 30 31 32 33 34 35 36 37 38 39 40 41 42 43 44 45 46 47 48 49 50
000
ASUS45 KSLC 180410
RWRUT

UTAH REGIONAL WEATHER ROUNDUP
NATIONAL WEATHER SERVICE SALT LAKE CITY UT
900 PM MST WED DEC 17 2014

UTZ001>011-023>025-180500-

NORTHERN UTAH

CITY           SKY/WX    TMP DP  RH WIND       PRES   REMARKS
BRIGHAM CITY   PTCLDY    31  27  83 CALM      30.06R
HILL AFB       MOCLDY    33  30  90 CALM      30.05R
LOGAN          CLOUDY    31  28  89 NE5       30.05R WCI  26
OGDEN          CLOUDY    33  30  88 S3        30.05R
PROVO AIRPORT  NOT AVBL
SALT LAKE CITY CLOUDY    34  31  88 NE3       30.05R
VERNAL         CLOUDY    25  22  88 SE5       30.07R WCI  19
WENDOVER       CLOUDY    30  25  80 CALM      30.06R
HEBER CITY     MOCLDY    28  23  80 SE3       30.03R THUNDER
WEST JORDAN    CLOUDY    34  32  93 CALM      30.06R

$$

UTZ012>022-026-027-180500-

SOUTHERN/CENTRAL UTAH

CITY           SKY/WX    TMP DP  RH WIND       PRES   REMARKS
BLANDING       CLOUDY    32  32 100 CALM      30.12R
BRYCE CANYON   MOCLDY    18  16  92 CALM      30.05R
CEDAR CITY     CLOUDY    33  30  88 W5        30.04S WCI  29
DELTA          CLOUDY    36  32  85 SE6       30.05S WCI  31
MILFORD        CLOUDY    37  31  78 S10       30.04R WCI  30
MOAB/CYNLANDS  CLOUDY    36  34  92 CALM      30.04R
PRICE          PTCLDY    27  20  75 NE5       30.02R WCI  22
ST GEORGE      CLOUDY    45  37  76 CALM      30.10R
KANAB            N/A     32  32 100 N3        30.12R

$$

REGIONAL REPORTS     COLORADO/ARIZONA

CITY           SKY/WX    TMP DP  RH WIND       PRES   REMARKS
CRAIG, CO      CLOUDY    27  26  96 CALM      30.03R FOG
GRAND JUNCTION LGT RAIN  35  35 100 CALM      30.03R FOG
RIFLE          CLOUDY    34  32  92 W3        30.01S FOG
MONTROSE       FLURRIES  34  33  96 CALM      30.04R
CORTEZ         CLOUDY    33  32  96 W3        30.06R
PAGE, AZ       CLEAR     37  32  82 SW3       30.07R
GRAND CANYON   LGT SNOW  32  32 100 CALM      30.09R FOG
KINGMAN        PTCLDY    41  39  93 CALM      30.09S
FLAGSTAFF      CLOUDY    31  29  92 SW3       30.09R

$$

REGIONAL REPORTS    NEVADA/IDAHO/WYOMING

CITY           SKY/WX    TMP DP  RH WIND       PRES   REMARKS
LAS VEGAS, NV  CLOUDY    50  44  80 SE5       30.04R
ELY            MOCLDY    27  22  81 SE6       30.04R WCI  20
ELKO           CLOUDY    27  26  96 CALM      30.04S FOG
POCATELLO, ID  PTCLDY    27  25  92 CALM      30.05R
BURLEY         MOCLDY    33  28  81 N3        30.02R
EVANSTON, WY   CLOUDY    27  20  75 W7        30.01R WCI  19
ROCK SPRINGS   PTCLDY    20  15  81 SW5       29.99S WCI  13
KEMMERER       PTCLDY    23  18  80 N5        30.00R WCI  17

$$


USA.gov is the U.S. government's official web portal to all federal, state and local government web resources and services.